Regional Weather Roundup
Issued by NWS

Home | Current Version | Previous Version | Text Only | Print | Product List | Glossary On
Versions: 1 2 3 4 5 6 7 8 9 10 11 12 13 14 15 16 17 18 19 20 21 22 23 24 25 26 27 28 29 30 31 32 33 34 35 36 37 38 39 40 41 42 43 44 45 46 47 48 49 50
000
ASUS46 KSEW 150010
RWRWA

WASHINGTON REGIONAL WEATHER ROUNDUP
NATIONAL WEATHER SERVICE SEATTLE WA
400 PM PST THU DEC 14 2017

NOTE:"FAIR" INDICATES FEW OR NO CLOUDS BELOW 12,000 FEET WITH NO
SIGNIFICANT WEATHER AND/OR OBSTRUCTIONS TO VISIBILITY.

WAZ507-509-555>559-150100-
SEATTLE, TACOMA, EVERETT, AND VICINITY

CITY           SKY/WX    TMP DP  RH WIND       PRES   REMARKS
EVERETT        MOCLDY    46  35  65 CALM      30.28R
6HR MIN TEMP:  43; 6HR MAX TEMP:  50;

BOEING FIELD   MOCLDY    49  37  63 NW5       30.27F
6HR MIN TEMP:  41; 6HR MAX TEMP:  50;

RENTON         MOCLDY    47  37  68 CALM      30.25F
6HR MIN TEMP:  37; 6HR MAX TEMP:  50;

SEATAC AIRPORT MOCLDY    46  36  68 W6        30.26S
6HR MIN TEMP:  41; 6HR MAX TEMP:  50;

JBLM-MCCHORD   MOCLDY    39  39 100 CALM      30.27S FOG
6HR MIN TEMP:  35; 6HR MAX TEMP:  41;

PUYALLUP       FAIR      43  39  87 CALM      30.26S
BREMERTON      MOCLDY    46  36  68 CALM      30.27S
6HR MIN TEMP:  40; 6HR MAX TEMP:  49;

JBLM-FT LEWIS  NOT AVBL
TACOMA NARROWS MOCLDY    42  41  96 CALM      30.27F
6HR MIN TEMP:  39; 6HR MAX TEMP:  45;

$$

WAZ001-503-506-510-514-515-150100-
NORTH INTERIOR

CITY           SKY/WX    TMP DP  RH WIND       PRES   REMARKS
BELLINGHAM     PTCLDY    43  37  79 CALM      30.27F
6HR MIN TEMP:  35; 6HR MAX TEMP:  48;

FRIDAY HARBOR  MOCLDY    44  39  82 CALM      30.28F
6HR MIN TEMP:  43; 6HR MAX TEMP:  49;

EASTSOUND      MOCLDY    43  41  93 CALM      30.28F
PORT ANGELES   MOCLDY    45  43  93 CALM      30.27F
6HR MIN TEMP:  38; 6HR MAX TEMP:  47;

EDIZ HOOK      FAIR      45  42  91 CALM      30.27F
6HR MIN TEMP:  42; 6HR MAX TEMP:  47;

PORT TOWNSEND  FAIR      45  43  93 CALM      30.28F
NAS WHIDBEY    MOCLDY    47  39  74 E5        30.31S
6HR MIN TEMP:  41; 6HR MAX TEMP:  51;

ARLINGTON      PTCLDY    42  36  79 NW5       30.29R
6HR MIN TEMP:  34; 6HR MAX TEMP:  49;

BURLINGTON     CLEAR     43  39  87 CALM      30.29R
$$

WAZ020-022-039-040-504-511-512-150100-
SOUTHWEST INTERIOR

CITY           SKY/WX    TMP DP  RH WIND       PRES   REMARKS
SHELTON        MOCLDY    45  40  82 CALM      30.25S
6HR MIN TEMP:  36; 6HR MAX TEMP:  49;

OLYMPIA        MOCLDY    37  37 100 CALM      30.28R FOG
6HR MIN TEMP:  32; 6HR MAX TEMP:  40;

CHEHALIS       FAIR      39  39 100 CALM      30.28R
KELSO          MOCLDY    42  31  64 S7        30.30R
6HR MIN TEMP:  33; 6HR MAX TEMP:  45;

VANCOUVER      MOCLDY    40  29  64 SE8       30.30S
6HR MIN TEMP:  40; 6HR MAX TEMP:  44;

SCAPPOOSE, OR  CLOUDY    41  28  60 S7        30.29F
6HR MIN TEMP:  40; 6HR MAX TEMP:  44;

PORTLAND, OR   MOCLDY    40  28  62 SE14      30.30S
6HR MIN TEMP:  40; 6HR MAX TEMP:  44;

$$

WAZ021-516-517-150100-
WASHINGTON COAST

CITY           SKY/WX    TMP DP  RH WIND       PRES   REMARKS
FORKS          MOCLDY    46  43  89 CALM      30.25F
6HR MIN TEMP:  36; 6HR MAX TEMP:  50;

HOQUIAM        PTCLDY    47  39  74 E6        30.24S
6HR MIN TEMP:  40; 6HR MAX TEMP:  51;

ASTORIA, OR    MOCLDY    46  35  65 NE8       30.23S
6HR MIN TEMP:  44; 6HR MAX TEMP:  51;

$$

WAZ019-023-024-040-567>569-150100-
CASCADE MOUNTAINS AND COLUMBIA GORGE

CITY           SKY/WX    TMP DP  RH WIND       PRES   REMARKS
STAMPEDE PASS  NOT AVBL
TROUTDALE, OR  MOCLDY    39  27  62 E26G37    30.29F
6HR MIN TEMP:  38; 6HR MAX TEMP:  42;

HOOD RIVER, OR CLOUDY    32  27  80 E6        30.52R HAZE
THE DALLES, OR CLOUDY    36  26  67 SE5       30.53S
6HR MIN TEMP:  35; 6HR MAX TEMP:  37;

$$

WAZ026-027-041>044-520-521-150100-
EAST SLOPES

CITY           SKY/WX    TMP DP  RH WIND       PRES   REMARKS
OMAK           CLOUDY    33  32  96 SE6       30.46F
6HR MIN TEMP:  32; 6HR MAX TEMP:  33;

WENATCHEE      CLOUDY    32  30  92 CALM      30.47S
6HR MIN TEMP:  30; 6HR MAX TEMP:  33;

ELLENSBURG     CLOUDY    33  26  75 CALM      30.44S
6HR MIN TEMP:  31; 6HR MAX TEMP:  34;

YAKIMA         CLOUDY    35  28  75 SW3       30.50R
6HR MIN TEMP:  34; 6HR MAX TEMP:  36;

SUNNYSIDE ARPT CLOUDY    32  28  86 CALM      30.51R
6HR MIN TEMP:  31; 6HR MAX TEMP:  33;

YAKIMA TC      CLOUDY    32  28  84 S3        30.45S
6HR MIN TEMP:  30; 6HR MAX TEMP:  32;

$$

WAZ028-034-035-150100-
COLUMBIA BASIN

CITY           SKY/WX    TMP DP  RH WIND       PRES   REMARKS
EPHRATA        CLOUDY    34  26  72 SW3       30.46F
6HR MIN TEMP:  34; 6HR MAX TEMP:  35;

MOSES LAKE     CLOUDY    33  29  85 SE6       30.48F
6HR MIN TEMP:  33; 6HR MAX TEMP:  35;

PASCO          CLOUDY    34  28  79 SE6       30.53F
6HR MIN TEMP:  33; 6HR MAX TEMP:  35;

RICHLAND ARPT  CLOUDY    35  31  85 E6        30.53S
6HR MIN TEMP:  35; 6HR MAX TEMP:  36;

HERMISTON, OR  CLOUDY    32  29  88 CALM      30.50F
6HR MIN TEMP:  31; 6HR MAX TEMP:  33;

$$

WAZ036>038-150100-
NORTHEAST WASHINGTON

CITY           SKY/WX    TMP DP  RH WIND       PRES   REMARKS
SPOKANE GEIGER CLOUDY    30  29  96 NE5       30.40F FOG
6HR MIN TEMP:  30; 6HR MAX TEMP:  31; 6HR PCP: TRACE;

SPOKANE FELTS  CLOUDY    32  29  88 E3        30.43F
6HR MIN TEMP:  32; 6HR MAX TEMP:  34;

FAIRCHILD AFB  CLOUDY    29  29 100 NE5       30.40F FOG
COEURDALENE,ID CLOUDY    32  28  85 NE6       30.41F
6HR MIN TEMP:  31; 6HR MAX TEMP:  33;

DEER PARK      CLOUDY    31  27  85 N3        30.42F
6HR MIN TEMP:  30; 6HR MAX TEMP:  31;

$$

WAZ029>033-150100-
SOUTHEAST WASHINGTON

CITY           SKY/WX    TMP DP  RH WIND       PRES   REMARKS
PULLMAN        CLOUDY    29  26  89 S8        30.41F
6HR MIN TEMP:  29; 6HR MAX TEMP:  30;

LEWISTON, ID   CLOUDY    33  28  81 CALM      30.45F
6HR MIN TEMP:  33; 6HR MAX TEMP:  34;

WALLA WALLA    CLOUDY    31  26  82 SW5       30.48F
6HR MIN TEMP:  30; 6HR MAX TEMP:  32;

PENDLETON, OR  CLOUDY    29  24  82 SE5       30.45F
6HR MIN TEMP:  28; 6HR MAX TEMP:  29;

$$



USA.gov is the U.S. government's official web portal to all federal, state and local government web resources and services.